TimeEDT,TemperatureF,Dew PointF,Humidity,Sea Level PressureIn,VisibilityMPH,Wind Direction,Wind SpeedMPH,Gust SpeedMPH,PrecipitationIn,Events,Conditions,WindDirDegrees,DateUTC
12:54 AM,44.6,32.0,61,-9999,70.0,WNW,23.0,-,N/A,,Scattered Clouds,290,2013-08-18 04:54:00
1:52 AM,42.8,35.6,76,-9999,70.0,WNW,27.6,-,N/A,,Mostly Cloudy,290,2013-08-18 05:52:00
2:54 AM,42.8,42.8,100,-9999,0.1,West,27.6,-,N/A,Fog,Fog,280,2013-08-18 06:54:00
3:56 AM,44.6,44.6,100,-9999,0.1,West,31.1,-,N/A,Fog,Fog,280,2013-08-18 07:56:00
4:54 AM,44.6,44.6,100,-9999,0.1,West,27.6,-,N/A,Fog,Fog,280,2013-08-18 08:54:00
5:48 AM,42.8,42.8,100,-9999,0.1,WNW,26.5,-,N/A,Fog,Fog,290,2013-08-18 09:48:00
6:48 AM,44.6,44.6,100,-9999,0.1,WNW,21.9,-,N/A,Fog,Fog,290,2013-08-18 10:48:00
7:55 AM,44.6,42.8,93,-9999,60.0,West,20.7,-,N/A,,Mostly Cloudy,280,2013-08-18 11:55:00
8:54 AM,46.4,42.8,87,-9999,40.0,West,15.0,-,N/A,,Overcast,280,2013-08-18 12:54:00
9:57 AM,48.2,37.4,66,-9999,40.0,West,13.8,-,N/A,,Mostly Cloudy,280,2013-08-18 13:57:00
10:54 AM,48.2,37.4,66,-9999,40.0,West,17.3,-,N/A,,Mostly Cloudy,270,2013-08-18 14:54:00
11:52 AM,50.0,37.4,62,-9999,50.0,West,20.7,-,N/A,,Mostly Cloudy,280,2013-08-18 15:52:00
12:57 PM,50.0,37.4,62,-9999,50.0,West,15.0,-,N/A,,Overcast,280,2013-08-18 16:57:00
1:54 PM,51.8,35.6,54,-9999,50.0,West,15.0,-,N/A,,Overcast,270,2013-08-18 17:54:00
2:58 PM,51.8,32.0,47,-9999,50.0,West,17.3,-,N/A,,Overcast,270,2013-08-18 18:58:00
3:58 PM,51.8,33.8,50,-9999,35.0,West,19.6,-,N/A,,Overcast,270,2013-08-18 19:58:00
4:47 PM,51.8,33.8,50,-9999,35.0,West,20.7,-,N/A,,Mostly Cloudy,270,2013-08-18 20:47:00
5:53 PM,48.2,48.2,100,-9999,0.2,West,24.2,-,N/A,Fog,Fog,280,2013-08-18 21:53:00
6:55 PM,48.2,44.6,87,-9999,40.0,WNW,20.7,-,N/A,Fog,Patches of Fog,290,2013-08-18 22:55:00
7:47 PM,46.4,46.4,100,-9999,0.1,WNW,20.7,-,N/A,Fog,Fog,290,2013-08-18 23:47:00
8:53 PM,46.4,44.6,93,-9999,0.1,West,23.0,-,N/A,Fog,Fog,280,2013-08-19 00:53:00
9:53 PM,44.6,44.6,100,-9999,0.1,West,20.7,-,N/A,Fog,Fog,280,2013-08-19 01:53:00
10:57 PM,44.6,41.0,87,-9999,35.0,WNW,19.6,-,N/A,,Mostly Cloudy,290,2013-08-19 02:57:00
11:54 PM,44.6,42.8,93,-9999,35.0,WNW,21.9,-,N/A,,Scattered Clouds,290,2013-08-19 03:54:00